Tracking 29892 objects as of 21-Nov-2024
HD Live streaming from Space Station
objects crossing your sky now

DASH 1

Track DASH 1 now!
10-day predictions
DASH 1 is classified as:


NORAD ID: 589
Int'l Code: 1963-014D
Perigee: 3,530.6 km
Apogee: 3,766.4 km
Inclination: 87.3 °
Period: 166.4 minutes
Semi major axis: 10019 km
RCS: 1.0728 m2 (large)
Launch date: May 9, 1963
Source: United States (US)
Launch site: AIR FORCE WESTERN TEST RANGE (AFWTR)
Your satellite tracking list
Your tracking list is empty




NASA's NSSDC Master Catalog

Two Line Element Set (TLE):
1 00589U 63014D   24325.25026410 -.00000034  00000-0 -17036-1 0  9999
2 00589  87.3180 245.1062 0117701 218.7445 140.4922  8.65631386944150
Source of the keplerian elements: AFSPC